[[{"header":{"parameterUnit":"m.s-1","parameterCategory":1,"la1":30.2991,"la2":30.254,"lo1":-89.0895,"lo2":-89.0444,"dy":0.0017,"dx":0.0017,"nx":28,"ny":28,"refTime":"2025-09-04T21:00:00:Z","depth":0,"parameterNumber":2,"parameterNumberName":"U-component_of_WINDS"},"data":[0,0,0,0,0,0,0,0,0,0,0,0,0,0,0,0,0,0,0,0,0,0,0,0,0,0,0,0,0,0,0,0,0,0,0,0,0,0,0,0,0,0,0,0,0,0,0,0,0,0,0,0,0,0,0,0,0,0,0.5571,0.5571,0,0.5567,0.5567,0.5567,0.5558,0.5558,0.5558,0.5558,0.5552,0.5552,0.5552,0,0,0,0,0,0,0,0,0,0,0,0,0,0.5569,0.5569,0.5571,0.5571,0.5571,0.5567,0.5567,0.5567,0.5558,0.5558,0.5558,0.5557,0.5552,0.5552,0.5552,0,0,0,0,0,0,0,0,0,0,0,0,0,0.5568,0.5569,0.5571,0.5566,0.5565,0.5567,0.5567,0.5567,0.5558,0.5558,0.5558,0.5557,0.5552,0.5552,0.5552,0.5558,0,0,0.5553,0.5553,0,0,0,0,0,0,0,0,0.5568,0.5568,0.5567,0.5566,0.5566,0.5563,0.5564,0.5564,0.5558,0.5561,0.5558,0.5557,0.5556,0.5556,0.5555,0.5558,0.5557,0.5553,0.5553,0.5553,0.5553,0,0,0,0,0,0,0,0.5568,0.5568,0.5569,0.5567,0.5566,0.5563,0.5563,0.5564,0.556,0.5561,0.556,0.556,0.5556,0.5555,0.5555,0.5557,0.5553,0.5553,0.5553,0.5553,0.5561,0.5561,0,0,0,0,0,0,0.5569,0.5568,0.5569,0.5569,0.5566,0.5563,0.5563,0.5564,0.556,0.5559,0.556,0.5559,0.5556,0.5555,0.5555,0.556,0.5553,0.5553,0.5553,0.5561,0.5561,0.5562,0,0,0,0,0,0,0.5569,0.5569,0.5569,0.5568,0.5568,0.5564,0.5565,0.5564,0.5564,0.5559,0.5558,0.5561,0.5555,0.5555,0.5557,0.5559,0.5553,0.5553,0.5561,0.5561,0.5561,0.557,0,0,0,0,0,0,0.5569,0.5569,0.5572,0.5568,0.5568,0.5572,0.5565,0.5564,0.5564,0.5563,0.556,0.5559,0.5555,0.5557,0.5557,0.5559,0.5553,0.5561,0.5561,0.5561,0.5569,0.557,0.5571,0,0,0,0,0,0.5569,0.5575,0.5572,0.5572,0.5572,0.5572,0.5572,0.5568,0.5564,0.5566,0.5563,0.5559,0.5559,0.5557,0.5557,0.556,0.556,0.5561,0.5561,0.5569,0.557,0.5571,0,0,0,0,0,0,0.5578,0.5574,0.5571,0.5576,0.5575,0.5571,0.5573,0.557,0.5569,0.5568,0.5562,0.5562,0.5564,0.5562,0.556,0.5563,0.5559,0.5559,0.5565,0.5566,0.5567,0.5567,0.5553,0,0,0,0,0,0.5581,0.5583,0.5578,0.5583,0.5582,0.5578,0.5578,0.5575,0.5573,0.5572,0.5569,0.5567,0.5566,0.5566,0.5565,0.5569,0.5567,0.557,0.5571,0.5572,0.5573,0.5573,0.5574,0.5563,0.5563,0.5563,0,0,0.5587,0.5585,0.5586,0.5585,0.5583,0.5584,0.5578,0.5579,0.5579,0.5572,0.5573,0.5571,0.5568,0.557,0.5571,0.5569,0.5575,0.5573,0.5574,0.5574,0.5573,0.5574,0.5575,0.5563,0.5563,0.5563,0,0,0.5597,0.5596,0.5599,0.5597,0.5595,0.5592,0.5592,0.5589,0.5587,0.5588,0.5582,0.5582,0.5581,0.5579,0.5578,0.5585,0.5581,0.5585,0.559,0.559,0.5591,0.5592,0.5593,0.5594,0.5585,0.5585,0.5585,0,0.5604,0.5606,0.5601,0.5602,0.5602,0.5595,0.5597,0.5596,0.5593,0.5592,0.5589,0.5587,0.5585,0.5586,0.5587,0.5587,0.5587,0.5585,0.5591,0.5592,0.5593,0.5594,0.5595,0.5586,0.5586,0.5586,0.5586,0,0.5614,0.5615,0.5617,0.5615,0.5614,0.5616,0.561,0.561,0.5607,0.5603,0.5603,0.56,0.5598,0.5598,0.5595,0.5598,0.5596,0.5593,0.5588,0.5594,0.5595,0.5596,0.5586,0.5586,0.5586,0.5586,0,0,0.5631,0.5625,0.5626,0.5624,0.5619,0.562,0.562,0.5618,0.5617,0.5615,0.5615,0.5614,0.561,0.5608,0.5605,0.5605,0.5609,0.5601,0.5601,0.5602,0.5611,0.5613,0.5614,0.5606,0.5606,0.5607,0.5611,0,0.564,0.5641,0.5636,0.5639,0.5638,0.5632,0.5632,0.5629,0.5625,0.5624,0.562,0.5619,0.5615,0.5613,0.5613,0.5609,0.5611,0.5608,0.5605,0.5605,0.5606,0.5615,0.5618,0.5622,0.5611,0.5612,0.5612,0,0.5651,0.5649,0.5651,0.5645,0.5645,0.5645,0.5642,0.5641,0.5637,0.5634,0.5632,0.5627,0.5626,0.5622,0.562,0.5618,0.5617,0.5614,0.5614,0.5613,0.5609,0.5614,0.5623,0.5624,0.5612,0.5612,0.5612,0,0.5662,0.5659,0.566,0.5659,0.5652,0.5652,0.565,0.5645,0.5644,0.564,0.5639,0.5636,0.5634,0.5631,0.5625,0.5623,0.5624,0.5619,0.5621,0.5621,0.5621,0.5621,0.563,0.5621,0.5621,0.5621,0.5621,0,0.5672,0.5673,0.5665,0.5665,0.5666,0.5659,0.566,0.5657,0.5652,0.5651,0.5645,0.5644,0.5636,0.5634,0.5629,0.5628,0.5627,0.5624,0.5623,0.5624,0.5625,0.5623,0.5622,0.5621,0.5621,0.5621,0.5621,0,0.5684,0.5679,0.5678,0.5672,0.567,0.5671,0.5665,0.5665,0.566,0.5659,0.5658,0.5651,0.5648,0.5641,0.5637,0.5633,0.5633,0.5631,0.5634,0.5633,0.5635,0.5634,0.5643,0.5643,0.5634,0.5634,0.5634,0,0.569,0.5691,0.5684,0.5683,0.568,0.5679,0.5677,0.567,0.5668,0.5663,0.5662,0.5659,0.5655,0.565,0.5645,0.564,0.5638,0.5641,0.5637,0.5638,0.5637,0.5637,0.5636,0.5642,0.5642,0.5642,0.5642,0,0.5702,0.5699,0.5697,0.5693,0.5691,0.5687,0.5684,0.5683,0.5675,0.5673,0.567,0.5667,0.5662,0.5658,0.5653,0.5649,0.5644,0.5643,0.5643,0.5645,0.5646,0.5645,0.5636,0.5643,0.5643,0.5643,0.5643,0.5643,0.5711,0.5711,0.5705,0.5703,0.5699,0.5695,0.5694,0.5689,0.5686,0.5682,0.5678,0.5674,0.5668,0.5661,0.5657,0.5654,0.5652,0.5652,0.5652,0.5652,0.5652,0.5647,0.5653,0.5653,0.5653,0.5653,0.5653,0,0.5721,0.5717,0.5715,0.5709,0.5707,0.5702,0.5698,0.5696,0.5693,0.5688,0.5685,0.568,0.5676,0.5669,0.5664,0.5663,0.566,0.5662,0.5661,0.566,0.5655,0.5655,0.5664,0.5664,0.5664,0.5664,0.5664,0.5664,0.5726,0.5725,0.5721,0.5718,0.5714,0.571,0.5708,0.5704,0.57,0.5695,0.5692,0.5687,0.5681,0.5676,0.5671,0.5669,0.5667,0.5669,0.5667,0.5662,0.5661,0.566,0.566,0.5669,0.5669,0.5672,0.5672,0.5672]},{"header":{"parameterUnit":"m.s-1","parameterCategory":1,"la1":30.2991,"la2":30.254,"lo1":-89.0895,"lo2":-89.0444,"dy":0.0017,"dx":0.0017,"nx":28,"ny":28,"refTime":"2025-09-04T21:00:00:Z","depth":0,"parameterNumber":3,"parameterNumberName":"V-component_of_WINDS"},"data":[0,0,0,0,0,0,0,0,0,0,0,0,0,0,0,0,0,0,0,0,0,0,0,0,0,0,0,0,0,0,0,0,0,0,0,0,0,0,0,0,0,0,0,0,0,0,0,0,0,0,0,0,0,0,0,0,0,0,4.5283,4.5283,0,4.5267,4.5267,4.5267,4.5194,4.5192,4.519,4.5189,4.5173,4.5174,4.5175,0,0,0,0,0,0,0,0,0,0,0,0,0,4.5249,4.525,4.5283,4.5283,4.5282,4.5267,4.5267,4.5267,4.5194,4.5192,4.519,4.5188,4.5173,4.5174,4.5175,0,0,0,0,0,0,0,0,0,0,0,0,0,4.5252,4.525,4.5283,4.5244,4.5241,4.5267,4.5267,4.5267,4.5195,4.5192,4.5189,4.5187,4.5172,4.5174,4.5176,4.5238,0,0,4.5181,4.5182,0,0,0,0,0,0,0,0,4.5252,4.5253,4.525,4.5247,4.5243,4.523,4.5249,4.5257,4.5195,4.5212,4.5189,4.5186,4.5194,4.5194,4.5196,4.5237,4.5236,4.5181,4.5182,4.5183,4.5183,0,0,0,0,0,0,0,4.5252,4.5253,4.5276,4.525,4.5246,4.5228,4.5225,4.525,4.5218,4.521,4.5205,4.5204,4.5191,4.5195,4.5196,4.5236,4.5181,4.5183,4.5184,4.5184,4.5324,4.5327,0,0,0,0,0,0,4.5257,4.5254,4.5277,4.5276,4.5241,4.523,4.5228,4.5237,4.5217,4.5212,4.5206,4.5201,4.5193,4.5194,4.5195,4.5264,4.5183,4.5185,4.5186,4.5322,4.5325,4.5328,0,0,0,0,0,0,4.5256,4.526,4.5278,4.5263,4.5264,4.5234,4.5244,4.5238,4.5241,4.5214,4.5208,4.5216,4.5191,4.5192,4.5227,4.5262,4.5185,4.5187,4.5318,4.5323,4.5326,4.5404,0,0,0,0,0,0,4.5256,4.526,4.5283,4.5264,4.5265,4.5311,4.5247,4.5239,4.5244,4.5237,4.5221,4.5216,4.5189,4.5225,4.5229,4.5263,4.5188,4.5315,4.532,4.5325,4.5399,4.5411,4.5421,0,0,0,0,0,4.5255,4.5307,4.5285,4.5288,4.5294,4.5313,4.5313,4.5281,4.5247,4.527,4.5253,4.5217,4.5259,4.5229,4.5233,4.5269,4.5313,4.5319,4.5325,4.5393,4.5408,4.5421,0,0,0,0,0,0,4.5331,4.5304,4.5279,4.5327,4.5323,4.5301,4.5329,4.5298,4.5304,4.5296,4.5256,4.5253,4.5293,4.5285,4.5252,4.5327,4.5279,4.5286,4.533,4.5344,4.5355,4.5355,4.519,0,0,0,0,0,4.5354,4.5371,4.5346,4.539,4.539,4.536,4.5367,4.5342,4.5336,4.5334,4.5319,4.5315,4.5327,4.5335,4.5345,4.5398,4.5392,4.5424,4.5435,4.5445,4.5451,4.5475,4.5488,4.5347,4.5347,4.5347,0,0,4.54,4.5387,4.5401,4.5405,4.5399,4.5418,4.5359,4.5381,4.5394,4.5338,4.5368,4.5358,4.535,4.5394,4.5412,4.5388,4.5489,4.5452,4.546,4.5461,4.5483,4.5496,4.5508,4.5351,4.5351,4.535,0,0,4.5493,4.5486,4.5521,4.5516,4.5507,4.5487,4.5495,4.5478,4.5468,4.5499,4.5456,4.5471,4.5493,4.5488,4.5489,4.558,4.5546,4.5584,4.5642,4.5666,4.5678,4.5687,4.5717,4.5729,4.5591,4.5591,4.5591,0,4.5552,4.5578,4.5543,4.5567,4.557,4.5519,4.5553,4.555,4.5546,4.5548,4.5521,4.5546,4.5538,4.5578,4.56,4.5603,4.561,4.5585,4.5679,4.5688,4.5697,4.5724,4.5736,4.5595,4.5595,4.5594,4.5594,0,4.5649,4.5668,4.5697,4.5692,4.5698,4.5728,4.5697,4.5707,4.5682,4.5664,4.5695,4.5683,4.5688,4.5697,4.5673,4.5733,4.5718,4.5686,4.5637,4.5715,4.574,4.5751,4.5602,4.56,4.5599,4.5598,0,0,4.5789,4.5764,4.5775,4.5771,4.5758,4.5771,4.5798,4.5803,4.5811,4.581,4.583,4.5849,4.5819,4.582,4.5795,4.5817,4.5886,4.5781,4.578,4.5799,4.5949,4.5972,4.5985,4.5865,4.5867,4.5868,4.5949,0,4.5876,4.5919,4.5888,4.5937,4.5952,4.5904,4.5927,4.5921,4.5906,4.5916,4.5899,4.5912,4.5872,4.5872,4.5892,4.5874,4.5916,4.5868,4.5882,4.5883,4.5882,4.5999,4.6023,4.61,4.5959,4.5961,4.5962,0,4.5983,4.5984,4.6035,4.6016,4.6021,4.6042,4.6043,4.6054,4.6046,4.6033,4.6034,4.6003,4.6027,4.5981,4.6012,4.598,4.5984,4.5977,4.5979,4.5977,4.5925,4.5998,4.6124,4.6134,4.5978,4.5977,4.5976,0,4.6076,4.6092,4.6123,4.6122,4.6102,4.6117,4.6109,4.6098,4.6103,4.6104,4.6105,4.611,4.6112,4.6115,4.6086,4.6056,4.6121,4.6073,4.6109,4.611,4.6123,4.6122,4.6249,4.613,4.613,4.613,4.613,0,4.6175,4.6207,4.6164,4.6183,4.6217,4.6181,4.6216,4.6203,4.6193,4.6208,4.6169,4.6183,4.6145,4.6156,4.6134,4.6162,4.6164,4.6153,4.6146,4.6155,4.6156,4.6155,4.6148,4.6133,4.6132,4.6132,4.6131,0,4.6285,4.6258,4.6288,4.6266,4.6261,4.6287,4.6268,4.6284,4.6265,4.6285,4.6287,4.6259,4.6269,4.6241,4.6248,4.6232,4.6272,4.6258,4.6275,4.6269,4.6306,4.6302,4.6435,4.645,4.6324,4.6325,4.6327,0,4.6348,4.6371,4.6351,4.6358,4.6352,4.6365,4.6368,4.6334,4.6339,4.6331,4.6347,4.6355,4.6358,4.6377,4.6357,4.6361,4.6345,4.6391,4.6345,4.6353,4.6343,4.6341,4.6342,4.64,4.6402,4.6403,4.6404,0,4.6463,4.6448,4.6455,4.6456,4.6462,4.6462,4.6459,4.6467,4.643,4.6438,4.6448,4.6451,4.6457,4.6463,4.6463,4.6455,4.6423,4.6419,4.6427,4.6435,4.6443,4.6437,4.6298,4.6416,4.6414,4.6414,4.6413,4.6413,4.655,4.6567,4.6555,4.6563,4.6557,4.6555,4.6568,4.6551,4.6559,4.656,4.654,4.6554,4.6543,4.654,4.6534,4.6544,4.6523,4.6535,4.6538,4.6541,4.6546,4.6443,4.6544,4.6544,4.6544,4.6543,4.6543,0,4.666,4.6649,4.6658,4.6654,4.666,4.663,4.6625,4.6632,4.6644,4.6637,4.6641,4.6652,4.6658,4.6638,4.6641,4.6653,4.6638,4.6655,4.6652,4.665,4.6566,4.6558,4.6666,4.6666,4.6666,4.6666,4.6666,4.6666,4.6718,4.6744,4.6728,4.6751,4.6741,4.6753,4.6752,4.675,4.6744,4.6757,4.6762,4.6749,4.6736,4.6738,4.6742,4.6736,4.6738,4.6759,4.6747,4.6669,4.6657,4.6645,4.6637,4.676,4.676,4.683,4.6831,4.6831]}]]